Nur fliegen ist schöner ....

Willkommen beim Flugservice Bautzen GmbH

Wir sind eine nach europäischen Richtlinien zugelassene Flugschule und lizenziertes Luftfahrtunternehmen. Bei uns können sie nicht nur Rundflüge über die Oberlausitz oder Sachsen buchen, sondern in unserer Flugschule selber das Fliegen erlernen. Erfahrene Fluglehrer stehen Ihnen dabei zur Seite.

Wir bieten Ihnen außerdem spezielle Flüge zur Vermessung oder Fotoflüge für Luftbildaufnahmen an. In Zusammenarbeit mit dem Fallschirmsportclub Dresden und dem Cottbuser Fallschirmsportclub setzen wir am Flugplatz Bautzen und Neuhausen Fallschirmspringer ab.
Schauen Sie sich in Ruhe bei uns um und wenn Sie Fragen haben oder weitere Informationen benötigen, scheuen Sie sich nicht Kontakt mit uns aufzunehmen.

Gutscheine für Rundflüge und Tandemsprünge können Sie ganz leicht auch online in unserem Shop erwerben.

Terminkalender

Letzter Monat Januar 2020 Nächster Monat
Mo Di Mi Do Fr Sa So
week 1 1 2 3 4 5
week 2 6 7 8 9 10 11 12
week 3 13 14 15 16 17 18 19
week 4 20 21 22 23 24 25 26
week 5 27 28 29 30 31

Flugwetterinfo

[Quelle: ADDS]
METAR
EDDC 241320Z 22004KT 190V270 CAVOK 04/M03 Q1021 NOSIG =
EDDC 241100Z 2412/2512 20005KT CAVOK BECMG 2500/2503 BKN012 TEMPO 2500/2508 BKN009 BECMG 2508/2511 BKN015
TAF
EDDC 241100Z 2412/2512 20005KT CAVOK BECMG 2500/2503 BKN012 TEMPO 2500/2508 BKN009 BECMG 2508/2511 BKN015 =
SR / SS: 06:50 / 15:37 UTC (EDAB Flugplatz Bautzen 2020-01-24)

Öffnungszeiten

des Flugplatzes Bautzen erfahren Sie hier:

flugplatz bautzen logo
Flugservice Bautzen GmbH, Kornmarkt 34, 02625 Bautzen  Telefon: +49 (3591) 211105, Telefax: +49 (3591) 274512, E-Mail:  flugservice(at)fsbautzen.de